Regional Weather Roundup
Issued by NWS Cleveland, OH

Home | Current Version | Previous Version | Graphics & Text | Print | Product List | Glossary On
Versions: 1 2 3 4 5 6 7 8 9 10 11 12 13 14 15 16 17 18 19 20 21 22 23 24 25 26 27 28 29 30 31 32 33 34 35 36 37 38 39 40 41 42 43 44 45 46 47 48 49 50
000
ASUS41 KCLE 301710
RWRCLE
OHIO REGIONAL WEATHER ROUNDUP
NATIONAL WEATHER SERVICE WILMINGTON, OH
100 PM EDT SUN AUG 30 2015

NOTE: "FAIR" INDICATES FEW OR NO CLOUDS BELOW 12,000 FEET WITH NO
SIGNIFICANT WEATHER AND/OR OBSTRUCTIONS TO VISIBILITY.

OHZ001>008-015>018-024>027-034-035-043-044-301800-
   NORTHWEST OHIO

CITY           SKY/WX    TMP DP  RH WIND       PRES   REMARKS
DEFIANCE       PTSUNNY   82  69  64 W6        30.07F
FINDLAY        SUNNY     82  67  60 SW9       30.07F
TOLEDO EXPRESS PTSUNNY   80  69  69 S7        30.07S
TOLEDO EXEC    MOSUNNY   81  68  64 SW7       30.08F
LIMA           MOSUNNY   81  68  64 SW9       30.09F
$$

OHZ009>014-019>023-028>033-038-089-301800-
   NORTHEAST OHIO

CITY           SKY/WX    TMP DP  RH WIND       PRES   REMARKS
CLE-HOPKINS    MOSUNNY   77  69  76 S7        30.11F
CLE-LAKEFRONT  MOSUNNY   78  70  76 VRB7      30.08F
CUY CO. ARPT   MOSUNNY   79  70  73 S9        30.11F
LORAIN-ELYRIA  SUNNY     77  69  76 S6        30.10F
ASHTABULA      PTSUNNY   76  68  76 VRB5      30.12F
AKRON-CANTON   PTSUNNY   76  67  73 SW7       30.13F
WOOSTER        MOSUNNY   77  67  71 VRB6      30.13F
MANSFIELD      PTSUNNY   80  66  62 W8        30.12F
YOUNGSTOWN     PTSUNNY   76  67  73 W5        30.12F
$$

OHZ042-051>053-060>062-070>072-077>081-301800-
  SOUTHWEST OHIO

CITY           SKY/WX    TMP DP  RH WIND       PRES   REMARKS
CINC-COVINGTON PTSUNNY   81  70  69 S6        30.12F
CINC-LUNKEN    SUNNY     82  72  71 S6        30.11F
HAMILTON       SUNNY     83  70  64 VRB3      30.11F
DAYTON         MOSUNNY   82  71  69 SW9       30.12F
WRIGHT-PAT AFB SUNNY     82  71  71 VRB6      30.10F
DAYTON GENERAL MOSUNNY   81  70  69 S8        30.11F
WILMINGTON     MOSUNNY   81  70  69 S9        30.12F
$$

OHZ036-037-039>041-045>050-054>059-063>069-073>076-082>088-301800-
  CENTRAL AND SOUTHEAST OHIO

CITY           SKY/WX    TMP DP  RH WIND       PRES   REMARKS
COLUMBUS       MOSUNNY   81  69  67 S7        30.11S
OSU AIRPORT    MOSUNNY   82  68  62 S9        30.11F
BOLTON FIELD   SUNNY     81  72  74 S6        30.13S
RICKENBACK AFB SUNNY     83  67  59 S7        30.11S
NEWARK         MOSUNNY   82  71  69 SW9       30.11F
MARION         MOSUNNY   79  67  66 SW8       30.11F
LANCASTER      SUNNY     83  66  56 S8        30.12F
ZANESVILLE     MOSUNNY   85  64  49 VRB7      30.12F
NEW PHILLY     PTSUNNY   79  68  69 VRB3      30.13S
$$



USA.gov is the U.S. government's official web portal to all federal, state and local government web resources and services.